OE-11399 Weather Reports


time (UTC)temp
C
wind
direction
speed
KPH
gust
KPH
rain 1hr
cm
rain 24hr
cm
rain mn
cm
humidity
%
barometer
mb
20260903100528 22 266 11.3 27.4 0.00 0.00 0.00 39 858.0
20260903095528 22 287 14.5 25.7 0.00 0.00 0.00 37 858.1
20260903094141 22 289 12.9 27.4 0.00 0.00 0.00 38 858.0
20260903093528 21 287 11.3 30.6 0.00 0.00 0.00 39 858.1
20260903091141 21 276 9.7 19.3 0.00 0.00 0.00 43 858.2
20260903090528 21 215 1.6 17.7 0.00 0.00 0.00 50 858.3
20260903085528 20 216 3.2 11.3 0.00 0.00 0.00 54 858.1
20260903084140 18 249 3.2 11.3 0.00 0.00 0.00 57 857.9
20260903083528 18 243 3.2 8.0 0.00 0.00 0.00 63 857.8
20260903082528 17 16 0.0 6.4 0.00 0.00 0.00 64 857.9
20260903081141 17 355 1.6 6.4 0.00 0.00 0.00 66 857.6
20260903080528 17 236 1.6 6.4 0.00 0.00 0.00 72 857.8
20260903075528 16 262 1.6 6.4 0.00 0.00 0.00 74 857.6
20260903074141 15 352 0.0 4.8 0.00 0.00 0.00 76 857.6
20260903073527 15 250 1.6 6.4 0.00 0.00 0.00 79 857.6
20260903072527 13 283 3.2 6.4 0.00 0.00 0.00 79 857.5
20260903071141 13 338 0.0 4.8 0.00 0.00 0.00 80 857.5
20260903070528 13 244 1.6 6.4 0.00 0.00 0.00 82 857.4
20260903065528 12 319 0.0 4.8 0.00 0.00 0.00 83 857.3
20260903064140 12 65 1.6 4.8 0.00 0.00 0.00 84 857.3
20260903063527 12 9 1.6 3.2 0.00 0.00 0.00 86 857.2
20260903062528 11 348 1.6 3.2 0.00 0.00 0.00 88 857.0
20260903061141 10 27 1.6 4.8 0.00 0.00 0.00 89 856.9
20260903060528 10 31 1.6 3.2 0.00 0.00 0.00 90 856.8
20260903055527 10 10 3.2 4.8 0.00 0.00 0.00 90 856.7
20260903054140 10 25 3.2 4.8 0.00 0.00 0.00 91 856.8
20260903053528 10 31 3.2 6.4 0.00 0.00 0.00 92 856.7
20260903052528 10 354 1.6 4.8 0.00 0.00 0.00 91 856.6
20260903051141 10 4 3.2 4.8 0.00 0.00 0.00 91 856.5
20260903050527 10 12 1.6 4.8 0.00 0.00 0.00 91 856.6
20260903045528 10 9 1.6 4.8 0.00 0.00 0.00 91 856.5
20260903044140 10 355 1.6 4.8 0.00 0.00 0.00 90 856.4
20260903043527 10 23 0.0 3.2 0.00 0.00 0.00 92 856.4
20260903042528 10 10 3.2 4.8 0.00 0.00 0.00 91 856.4
20260903041140 10 17 3.2 4.8 0.00 0.00 0.00 91 856.4
20260903040528 10 341 1.6 3.2 0.00 0.00 0.00 90 856.6
20260903035528 10 9 1.6 6.4 0.00 0.00 0.00 90 856.6
20260903034527 10 18 3.2 6.4 0.00 0.00 0.00 90 856.6
20260903033527 11 24 1.6 4.8 0.00 0.00 0.00 89 856.7
20260903032528 11 357 1.6 4.8 0.00 0.00 0.00 89 856.7
20260903031141 11 355 3.2 4.8 0.00 0.00 0.00 89 856.7
20260903030528 11 354 3.2 4.8 0.00 0.00 0.00 89 856.7
20260903025528 11 7 1.6 4.8 0.00 0.00 0.00 88 856.7
20260903024528 11 1 1.6 4.8 0.00 0.00 0.00 88 856.8
20260903023528 11 7 3.2 6.4 0.00 0.00 0.00 87 856.8
20260903022528 11 358 1.6 3.2 0.00 0.00 0.00 88 856.8
20260903021140 11 4 1.6 3.2 0.00 0.00 0.00 87 856.8
20260903020528 12 353 1.6 3.2 0.00 0.00 0.00 86 856.9
20260903015528 12 2 1.6 4.8 0.00 0.00 0.00 86 857.0
20260903014140 12 358 3.2 4.8 0.00 0.00 0.00 86 857.0
20260903013527 12 2 1.6 4.8 0.00 0.00 0.00 86 857.0
20260903012527 12 358 3.2 4.8 0.00 0.00 0.00 86 857.0
20260903011141 12 348 1.6 4.8 0.00 0.00 0.00 86 857.0
20260903010528 12 18 1.6 4.8 0.00 0.00 0.00 86 856.9
20260903005528 12 357 1.6 4.8 0.00 0.00 0.00 86 857.0
20260903004141 12 356 3.2 4.8 0.00 0.00 0.00 86 856.9
20260903003528 12 350 3.2 9.7 0.00 0.00 0.00 86 856.9
20260903002528 12 44 1.6 6.4 0.00 0.00 0.00 86 856.9
20260903001540 12 27 4.8 8.0 0.00 0.00 0.00 85 857.0
20260903000527 12 19 3.2 8.0 0.00 0.00 0.00 85 857.0
20260902235527 12 17 3.2 4.8 0.00 0.00 0.00 85 857.0
20260902234141 12 359 3.2 6.4 0.00 0.00 0.00 84 857.0
20260902233527 13 351 1.6 4.8 0.00 0.00 0.00 84 857.0
20260902232527 13 351 3.2 8.0 0.00 0.00 0.00 84 857.0
20260902231528 12 1 3.2 9.7 0.00 0.00 0.00 84 857.0
20260902230527 13 104 0.0 3.2 0.00 0.00 0.00 81 856.9
20260902225528 13 42 1.6 3.2 0.00 0.00 0.00 80 856.9
20260902224141 13 20 3.2 6.4 0.00 0.00 0.00 82 856.9
20260902223528 13 354 3.2 4.8 0.00 0.00 0.00 82 856.8
20260902222528 13 340 0.0 4.8 0.00 0.00 0.00 80 856.8
20260902221141 13 80 1.6 4.8 0.00 0.00 0.00 83 856.8
20260902220527 13 19 1.6 4.8 0.00 0.00 0.00 82 856.8
20260902215528 13 334 1.6 3.2 0.00 0.00 0.00 82 856.8
20260902214141 13 279 1.6 6.4 0.00 0.00 0.00 80 856.7
20260902213527 14 246 1.6 3.2 0.00 0.00 0.00 79 856.8
20260902211142 14 247 0.0 3.2 0.00 0.00 0.00 80 856.8
20260902210528 14 19 1.6 8.0 0.00 0.00 0.00 78 856.7
20260902205528 13 315 1.6 6.4 0.00 0.00 0.00 78 856.6
20260902204142 14 4 1.6 11.3 0.00 0.00 0.00 77 856.6
20260902203527 14 66 1.6 8.0 0.00 0.00 0.00 76 856.6
20260902202528 14 347 4.8 9.7 0.00 0.00 0.00 76 856.7
20260902201141 14 61 1.6 4.8 0.00 0.00 0.00 76 856.6
20260902200528 14 341 3.2 6.4 0.00 0.00 0.00 73 856.7
20260902195528 15 358 3.2 6.4 0.00 0.00 0.00 75 856.6
20260902194141 15 4 4.8 8.0 0.00 0.00 0.00 72 856.6
20260902193528 15 345 1.6 6.4 0.00 0.00 0.00 73 856.7
20260902192527 15 5 3.2 6.4 0.00 0.00 0.00 70 856.6
20260902191141 15 357 3.2 8.0 0.00 0.00 0.00 70 856.6
20260902190527 15 26 6.4 9.7 0.00 0.00 0.00 69 856.3
20260902185528 16 13 6.4 11.3 0.00 0.00 0.00 72 856.3
20260902184141 16 11 8.0 11.3 0.00 0.00 0.00 70 856.2
20260902183528 16 14 3.2 9.7 0.00 0.00 0.00 70 856.1
20260902182528 17 113 1.6 8.0 0.00 0.00 0.00 74 856.2
20260902181141 17 39 4.8 9.7 0.00 0.00 0.00 70 856.1
20260902180528 18 125 4.8 14.5 0.00 0.00 0.00 69 856.3
20260902175528 19 73 6.4 11.3 0.00 0.00 0.00 68 856.2
20260902174141 19 110 4.8 12.9 0.00 0.00 0.00 64 856.1
20260902173527 19 123 4.8 14.5 0.00 0.00 0.00 64 855.9
20260902172528 20 133 6.4 11.3 0.00 0.00 0.00 64 855.7
20260902171141 20 121 8.0 12.9 0.00 0.00 0.00 62 855.6
20260902170528 20 122 8.0 16.1 0.00 0.00 0.00 62 855.7
20260902165528 20 115 8.0 16.1 0.00 0.00 0.00 62 855.7
20260902164141 21 100 6.4 14.5 0.00 0.00 0.00 60 855.6
20260902163528 21 89 8.0 16.1 0.00 0.00 0.00 60 855.6
20260902162528 21 98 8.0 16.1 0.00 0.00 0.00 60 855.7
20260902161141 21 93 8.0 14.5 0.00 0.00 0.00 58 855.7
20260902160527 22 75 9.7 19.3 0.00 0.00 0.00 58 855.8
20260902155528 22 73 9.7 19.3 0.00 0.00 0.00 56 855.7
20260902154141 22 81 11.3 25.7 0.00 0.00 0.00 57 855.8
20260902153528 21 99 12.9 24.1 0.00 0.00 0.00 58 855.8
20260902152527 22 100 11.3 19.3 0.00 0.00 0.00 57 856.0
20260902151141 22 88 9.7 20.9 0.00 0.00 0.00 56 856.0
20260902150528 22 79 9.7 20.9 0.00 0.00 0.00 53 856.0
20260902145528 22 85 11.3 20.9 0.00 0.00 0.00 54 855.9
20260902144141 22 98 9.7 19.3 0.00 0.00 0.00 54 855.9
20260902143527 22 103 11.3 22.5 0.00 0.00 0.00 56 856.0
20260902142528 22 89 9.7 22.5 0.00 0.00 0.00 54 855.9
20260902141141 22 91 11.3 25.7 0.00 0.00 0.00 54 855.9
20260902140528 22 94 9.7 17.7 0.00 0.00 0.00 55 855.9
20260902135528 22 86 8.0 16.1 0.00 0.00 0.00 51 855.9
20260902134139 23 147 4.8 14.5 0.00 0.00 0.00 46 856.1
20260902133528 24 179 3.2 11.3 0.00 0.00 0.00 41 856.2
20260902132528 23 174 3.2 11.3 0.00 0.00 0.00 39 856.1
20260902131141 23 212 1.6 14.5 0.00 0.00 0.00 40 856.2
20260902130528 23 254 4.8 11.3 0.00 0.00 0.00 39 856.3
20260902125528 23 219 3.2 9.7 0.00 0.00 0.00 37 856.4
20260902124140 23 215 3.2 9.7 0.00 0.00 0.00 38 856.5
20260902123528 23 181 3.2 11.3 0.00 0.00 0.00 45 856.5
20260902122528 23 201 3.2 11.3 0.00 0.00 0.00 46 856.6
20260902121141 22 219 4.8 11.3 0.00 0.00 0.00 47 856.6
20260902120527 23 229 3.2 9.7 0.00 0.00 0.00 46 856.7
20260902115527 22 353 3.2 11.3 0.00 0.00 0.00 50 856.8
20260902114141 22 25 3.2 12.9 0.00 0.00 0.00 53 857.0
20260902113528 22 68 1.6 8.0 0.00 0.00 0.00 50 856.8
20260902112528 22 252 1.6 9.7 0.00 0.00 0.00 51 857.0
20260902111141 22 263 3.2 8.0 0.00 0.00 0.00 52 857.1
20260902110528 21 275 6.4 12.9 0.00 0.00 0.00 53 857.1
20260902105527 21 212 3.2 8.0 0.00 0.00 0.00 53 857.2
20260902104141 21 164 3.2 9.7 0.00 0.00 0.00 56 857.2
20260902103528 21 201 3.2 9.7 0.00 0.00 0.00 60 857.3
20260902102527 20 239 4.8 9.7 0.00 0.00 0.00 59 857.4
20260902101141 20 341 1.6 8.0 0.00 0.00 0.00 61 857.5